Tracking 19224 objects as of 22-Jul-2018
HD Live streaming from Space Station
objects crossing your sky now

COSMOS 2310

Track COSMOS 2310 now!
10-day predictions
COSMOS 2310 is classified as:


NORAD ID: 23526
Int'l Code: 1995-012A
Perigee: 983.2 km
Apogee: 1,016.8 km
Inclination: 82.9 °
Period: 105.0 minutes
Semi major axis: 7371 km
RCS: 2.0035 m2 (large)
Launch date: March 21, 1995
Source: Commonwealth of Independent States (former USSR) (CIS)
Launch site: PLESETSK MISSILE AND SPACE COMPLEX (PKMTR)
aabbcc
Your satellite tracking list
Your tracking list is empty




NASA's NSSDC Master Catalog

Two Line Element Set (TLE):
1 23526U 95012A   18202.34412274  .00000019  00000-0  39275-5 0  9996
2 23526  82.9466 116.4665 0022777  33.2197 106.1965 13.71870563168187
Source of the keplerian elements: AFSPC